EN

Hourly Weather La Ceiba

Today, 28 July, Wednesday

Time Temperature Precipitation Wind Pressure Humidity
00:00 +26°C° 0 mm 3 mps 759 mmHg 97%
01:00 +26°C° 0 mm 2 mps 758 mmHg 97%
02:00 +26°C° 0 mm 2 mps 758 mmHg 97%
03:00 +26°C° 0 mm 1 mps 758 mmHg 97%
04:00 +26°C° 0.2 mm 1 mps 758 mmHg 96%
05:00 +26°C° 0.2 mm 1 mps 758 mmHg 96%
06:00 +26°C° 0 mm 1 mps 759 mmHg 96%
07:00 +28°C° 0.1 mm 1 mps 759 mmHg 86%
08:00 +30°C° 0.1 mm 1 mps 759 mmHg 75%
09:00 +31°C° 0.1 mm 0 mps 759 mmHg 65%
10:00 +32°C° 0.7 mm 1 mps 759 mmHg 69%
11:00 +32°C° 0.7 mm 2 mps 759 mmHg 74%
12:00 +33°C° 0.7 mm 3 mps 759 mmHg 78%
13:00 +31°C° 1.1 mm 2 mps 758 mmHg 82%
14:00 +30°C° 1.1 mm 2 mps 758 mmHg 86%
15:00 +29°C° 1.1 mm 2 mps 757 mmHg 89%
16:00 +29°C° 1.5 mm 2 mps 757 mmHg 92%
17:00 +28°C° 1.5 mm 2 mps 758 mmHg 94%
18:00 +27°C° 1.5 mm 3 mps 758 mmHg 96%
19:00 +27°C° 1.2 mm 3 mps 758 mmHg 96%
20:00 +27°C° 1.2 mm 3 mps 758 mmHg 96%
21:00 +26°C° 1.2 mm 3 mps 759 mmHg 96%
22:00 +26°C° 0 mm 2 mps 759 mmHg 96%
23:00 +26°C° 0 mm 2 mps 758 mmHg 96%

Tomorrow, 29 July, Thursday

Time Temperature Precipitation Wind Pressure Humidity
00:00 +26°C° 0 mm 2 mps 758 mmHg 96%
01:00 +26°C° 0 mm 2 mps 758 mmHg 96%
02:00 +25°C° 0 mm 2 mps 758 mmHg 95%
03:00 +25°C° 0 mm 2 mps 758 mmHg 95%
04:00 +25°C° 0 mm 2 mps 758 mmHg 95%
05:00 +25°C° 0 mm 1 mps 758 mmHg 94%
06:00 +25°C° 0 mm 1 mps 759 mmHg 94%
07:00 +27°C° 0 mm 1 mps 759 mmHg 81%
08:00 +30°C° 0 mm 1 mps 759 mmHg 68%
09:00 +33°C° 0 mm 1 mps 760 mmHg 55%
10:00 +35°C° 0 mm 2 mps 759 mmHg 52%
11:00 +36°C° 0 mm 2 mps 759 mmHg 48%
12:00 +37°C° 0 mm 3 mps 759 mmHg 44%
13:00 +36°C° 0.1 mm 3 mps 759 mmHg 50%
14:00 +35°C° 0.1 mm 3 mps 758 mmHg 57%
15:00 +34°C° 0.1 mm 3 mps 758 mmHg 63%
16:00 +31°C° 0.5 mm 3 mps 758 mmHg 73%
17:00 +29°C° 0.5 mm 4 mps 758 mmHg 83%
18:00 +28°C° 0.5 mm 4 mps 758 mmHg 92%
19:00 +27°C° 0.6 mm 4 mps 759 mmHg 94%
20:00 +27°C° 0.6 mm 4 mps 759 mmHg 95%
21:00 +26°C° 0.6 mm 4 mps 759 mmHg 97%
22:00 +26°C° 0.2 mm 4 mps 759 mmHg 97%
23:00 +26°C° 0.2 mm 4 mps 759 mmHg 97%

Day after tomorrow, 30 July, Friday

Time Temperature Precipitation Wind Pressure Humidity
00:00 +25°C° 0.2 mm 3 mps 759 mmHg 97%
01:00 +25°C° 0 mm 3 mps 759 mmHg 97%
02:00 +25°C° 0 mm 3 mps 759 mmHg 97%
03:00 +25°C° 0 mm 3 mps 758 mmHg 97%
04:00 +25°C° 0 mm 2 mps 759 mmHg 97%
05:00 +25°C° 0 mm 2 mps 759 mmHg 97%
06:00 +25°C° 0 mm 2 mps 759 mmHg 97%
07:00 +27°C° 0 mm 2 mps 759 mmHg 85%
08:00 +30°C° 0 mm 2 mps 760 mmHg 73%
09:00 +34°C° 0 mm 2 mps 760 mmHg 61%
10:00 +35°C° 0 mm 3 mps 760 mmHg 55%
11:00 +36°C° 0 mm 3 mps 760 mmHg 49%
12:00 +37°C° 0 mm 4 mps 759 mmHg 43%
13:00 +36°C° 0 mm 4 mps 759 mmHg 48%
14:00 +36°C° 0 mm 5 mps 759 mmHg 53%
15:00 +35°C° 0 mm 5 mps 759 mmHg 58%
16:00 +33°C° 0.5 mm 5 mps 759 mmHg 69%
17:00 +30°C° 0.5 mm 5 mps 759 mmHg 79%
18:00 +29°C° 0.5 mm 5 mps 759 mmHg 90%
19:00 +28°C° 0.8 mm 5 mps 760 mmHg 92%
20:00 +27°C° 0.8 mm 5 mps 760 mmHg 95%
21:00 +26°C° 0.8 mm 5 mps 760 mmHg 97%
22:00 +26°C° 0.4 mm 4 mps 760 mmHg 97%
23:00 +26°C° 0.4 mm 4 mps 760 mmHg 97%

31 July, Saturday

Time Temperature Precipitation Wind Pressure Humidity
00:00 +26°C° 0.4 mm 4 mps 760 mmHg 97%
01:00 +26°C° 0 mm 3 mps 760 mmHg 97%
02:00 +25°C° 0 mm 3 mps 759 mmHg 98%
03:00 +25°C° 0 mm 3 mps 759 mmHg 98%
04:00 +25°C° 0 mm 3 mps 759 mmHg 97%
05:00 +25°C° 0 mm 2 mps 760 mmHg 97%
06:00 +25°C° 0 mm 2 mps 760 mmHg 97%
07:00 +28°C° 0.2 mm 2 mps 760 mmHg 86%
08:00 +30°C° 0.2 mm 1 mps 760 mmHg 76%
09:00 +33°C° 0.2 mm 1 mps 760 mmHg 65%
10:00 +32°C° 0.5 mm 2 mps 760 mmHg 69%
11:00 +32°C° 0.5 mm 2 mps 760 mmHg 73%
12:00 +32°C° 0.5 mm 2 mps 760 mmHg 77%
13:00 +31°C° 1 mm 2 mps 760 mmHg 81%
14:00 +31°C° 1 mm 3 mps 759 mmHg 86%
15:00 +30°C° 1 mm 3 mps 759 mmHg 90%
16:00 +29°C° 0.7 mm 3 mps 759 mmHg 91%
17:00 +29°C° 0.7 mm 4 mps 759 mmHg 92%
18:00 +28°C° 0.7 mm 4 mps 759 mmHg 93%
19:00 +27°C° 0.2 mm 4 mps 760 mmHg 94%
20:00 +27°C° 0.2 mm 4 mps 760 mmHg 95%
21:00 +27°C° 0.2 mm 4 mps 760 mmHg 96%
22:00 +26°C° 0.1 mm 3 mps 760 mmHg 96%
23:00 +26°C° 0.1 mm 3 mps 760 mmHg 95%

1 August, Sunday

Time Temperature Precipitation Wind Pressure Humidity
00:00 +26°C° 0.1 mm 2 mps 760 mmHg 95%
01:00 +26°C° 0 mm 2 mps 760 mmHg 95%
02:00 +26°C° 0 mm 2 mps 760 mmHg 95%
03:00 +25°C° 0 mm 1 mps 759 mmHg 96%
04:00 +25°C° 0 mm 1 mps 760 mmHg 95%
05:00 +25°C° 0 mm 1 mps 760 mmHg 95%
06:00 +25°C° 0 mm 1 mps 760 mmHg 95%
07:00 +28°C° 0 mm 1 mps 761 mmHg 82%
08:00 +30°C° 0 mm 1 mps 761 mmHg 69%
09:00 +33°C° 0 mm 1 mps 761 mmHg 56%
10:00 +35°C° 0 mm 2 mps 761 mmHg 52%
11:00 +36°C° 0 mm 2 mps 760 mmHg 49%
12:00 +37°C° 0 mm 3 mps 760 mmHg 45%
13:00 +36°C° 0.3 mm 3 mps 760 mmHg 53%
14:00 +35°C° 0.3 mm 4 mps 759 mmHg 61%
15:00 +34°C° 0.3 mm 4 mps 759 mmHg 69%
16:00 +32°C° 1 mm 5 mps 759 mmHg 77%
17:00 +30°C° 1 mm 5 mps 759 mmHg 85%
18:00 +28°C° 1 mm 5 mps 759 mmHg 93%
19:00 +28°C° 0.7 mm 5 mps 760 mmHg 94%
20:00 +27°C° 0.7 mm 5 mps 760 mmHg 95%
21:00 +27°C° 0.7 mm 5 mps 760 mmHg 96%
22:00 +26°C° 0 mm 4 mps 760 mmHg 97%
23:00 +26°C° 0 mm 4 mps 760 mmHg 97%

2 August, Monday

Time Temperature Precipitation Wind Pressure Humidity
00:00 +26°C° 0 mm 3 mps 760 mmHg 97%
01:00 +26°C° 0 mm 3 mps 759 mmHg 97%
02:00 +25°C° 0 mm 3 mps 759 mmHg 97%
03:00 +25°C° 0 mm 2 mps 759 mmHg 97%
04:00 +25°C° 0 mm 2 mps 759 mmHg 97%
05:00 +25°C° 0 mm 2 mps 759 mmHg 97%
06:00 +25°C° 0 mm 1 mps 760 mmHg 96%
07:00 +27°C° 0 mm 1 mps 760 mmHg 85%
08:00 +30°C° 0 mm 1 mps 760 mmHg 73%
09:00 +33°C° 0 mm 1 mps 760 mmHg 61%
10:00 +35°C° 0.1 mm 2 mps 760 mmHg 56%
11:00 +36°C° 0.1 mm 3 mps 760 mmHg 52%
12:00 +37°C° 0.1 mm 3 mps 760 mmHg 47%
13:00 +36°C° 0.6 mm 4 mps 759 mmHg 55%
14:00 +35°C° 0.6 mm 5 mps 759 mmHg 63%
15:00 +34°C° 0.6 mm 5 mps 758 mmHg 71%
16:00 +32°C° 0.6 mm 5 mps 758 mmHg 76%
17:00 +30°C° 0.6 mm 5 mps 758 mmHg 82%
18:00 +29°C° 0.6 mm 5 mps 758 mmHg 88%
19:00 +28°C° 0.5 mm 5 mps 759 mmHg 90%
20:00 +28°C° 0.5 mm 5 mps 759 mmHg 93%
21:00 +27°C° 0.5 mm 4 mps 759 mmHg 95%
22:00 +27°C° 0 mm 4 mps 759 mmHg 96%
23:00 +26°C° 0 mm 4 mps 759 mmHg 96%
Show more